Location: Paderno d�Adda
(45.6667°N, 9.4333°E)
Time: 16:28:27
(UTC+00:00)

CZ-2C R/B - Pass Details

Date: 19 September 2020
Orbit: 785 x 870 km, 98.2° (Epoch: 20 October)

Event Time Altitude Azimuth Distance (km) Brightness Sun altitude
Rises 18:58:18 0° 15° (NNE) 3,416 5.9 -16.8°
Reaches altitude 10° 19:00:41 10° 18° (NNE) 2,488 5.2 -17.2°
Maximum altitude 19:06:13 70° 102° (ESE) 918 2.6 -18.1°
Drops below altitude 10° 19:11:47 10° 186° (S) 2,505 5.0 -19.0°
Sets 19:14:11 0° 189° (S) 3,441 5.7 -19.4°
